EW6513 Weather Reports


time (UTC)temp
C
wind
direction
speed
KPH
gust
KPH
rain 1hr
cm
rain 24hr
cm
rain mn
cm
humidity
%
barometer
mb
20260506201925 15 261 4.8 19.3 0.05 0.56 0.56 95 1005.0
20260506201426 15 257 6.4 19.3 0.05 0.56 0.56 95 1004.9
20260506201155 15 229 6.4 20.9 0.08 0.56 0.56 95 1004.9
20260506200425 15 178 6.4 20.9 0.08 0.56 0.56 95 1005.0
20260506195919 15 310 4.8 17.7 0.10 0.56 0.56 95 1005.3
20260506195413 15 193 6.4 17.7 0.13 0.56 0.56 94 1005.2
20260506195138 15 268 6.4 16.1 0.13 0.56 0.56 94 1005.3
20260506194632 15 268 6.4 22.5 0.15 0.56 0.56 95 1005.3
20260506194125 15 236 4.8 22.5 0.13 0.53 0.53 95 1005.5
20260506193349 15 227 4.8 17.7 0.18 0.53 0.53 95 1005.7
20260506192843 15 213 6.4 19.3 0.20 0.53 0.53 95 1005.7
20260506192335 15 232 6.4 22.5 0.20 0.53 0.53 95 1005.9
20260506191828 15 215 6.4 22.5 0.18 0.51 0.51 94 1005.9
20260506191322 15 261 6.4 20.9 0.15 0.48 0.51 94 1005.9
20260506190817 15 289 6.4 20.9 0.15 0.48 0.48 94 1005.9
20260506190311 15 166 6.4 19.3 0.13 0.46 0.46 94 1006.1
20260506185805 15 214 6.4 22.5 0.13 0.46 0.46 94 1005.9
20260506185529 15 227 6.4 22.5 0.10 0.43 0.43 94 1005.9
20260506184753 15 178 6.4 24.1 0.10 0.43 0.43 94 1005.9
20260506184247 15 273 8.0 24.1 0.08 0.41 0.41 94 1005.9
20260506183740 15 307 6.4 24.1 0.05 0.38 0.41 94 1006.0
20260506183234 15 265 4.8 22.5 0.03 0.36 0.36 94 1006.0
20260506182729 15 223 8.0 24.1 0.00 0.33 0.33 94 1006.1
20260506182223 15 235 6.4 24.1 0.00 0.33 0.33 94 1005.9
20260506181717 15 234 4.8 19.3 0.00 0.33 0.33 94 1006.1
20260506181211 15 233 8.0 20.9 0.00 0.33 0.33 94 1006.1
20260506180705 15 196 8.0 20.9 0.03 0.33 0.33 94 1006.2
20260506180159 15 246 6.4 20.9 0.03 0.33 0.33 93 1006.2
20260506175923 15 149 6.4 22.5 0.05 0.33 0.33 94 1006.2
20260506175147 15 213 8.0 22.5 0.05 0.33 0.33 94 1006.3
20260506174641 15 217 8.0 24.1 0.05 0.33 0.33 94 1006.3
20260506174135 15 226 6.4 24.1 0.08 0.33 0.33 94 1006.4
20260506173900 15 225 6.4 20.9 0.10 0.33 0.33 94 1006.3
20260506173124 15 243 6.4 20.9 0.13 0.33 0.33 94 1006.3
20260506173119 15 259 6.4 14.5 0.15 0.33 0.33 94 1006.3
20260506172110 15 211 6.4 16.1 0.15 0.33 0.33 94 1006.3
20260506171604 15 215 6.4 19.3 0.18 0.33 0.33 93 1006.5
20260506171058 15 183 6.4 19.3 0.18 0.30 0.30 94 1006.5
20260506170552 15 236 6.4 19.3 0.18 0.30 0.30 93 1006.4
20260506170047 15 174 8.0 22.5 0.20 0.30 0.30 93 1006.2
20260506165541 15 223 9.7 22.5 0.18 0.28 0.28 93 1006.2
20260506165035 15 227 8.0 20.9 0.20 0.28 0.28 92 1006.3
20260506164529 15 241 6.4 17.7 0.18 0.25 0.25 92 1006.2
20260506164023 15 180 6.4 17.7 0.18 0.25 0.25 93 1006.3
20260506163516 15 226 6.4 17.7 0.18 0.23 0.23 92 1006.8
20260506163241 15 227 8.0 17.7 0.15 0.20 0.20 92 1007.1
20260506162504 15 183 8.0 19.3 0.13 0.18 0.18 92 1007.1
20260506161958 15 238 4.8 19.3 0.13 0.15 0.18 92 1007.3
20260506161453 15 199 4.8 16.1 0.13 0.15 0.15 92 1007.4
20260506160947 15 207 6.4 16.1 0.10 0.13 0.13 92 1007.5
20260506160441 15 209 6.4 16.1 0.13 0.13 0.13 91 1007.6
20260506155935 15 209 4.8 17.7 0.10 0.10 0.10 91 1007.7
20260506155428 15 208 6.4 17.7 0.08 0.08 0.10 91 1007.7
20260506154923 16 196 6.4 19.3 0.08 0.08 0.08 90 1007.7
20260506154417 16 193 6.4 27.4 0.08 0.08 0.08 90 1007.8
20260506153911 16 244 6.4 27.4 0.05 0.05 0.05 90 1007.8
20260506153635 16 261 4.8 19.3 0.05 0.05 0.05 90 1007.7
20260506152904 16 238 4.8 12.9 0.03 0.03 0.03 89 1007.5
20260506152859 16 249 6.4 16.1 0.05 0.05 0.05 90 1007.6
20260506151901 16 247 4.8 14.5 0.03 0.03 0.03 89 1007.4
20260506151359 16 222 4.8 14.5 0.03 0.03 0.03 88 1007.5
20260506150855 16 201 4.8 17.7 0.00 0.00 0.03 86 1007.7
20260506150358 16 243 6.4 25.7 0.00 0.00 0.00 84 1007.7
20260506145858 17 226 6.4 25.7 0.00 0.00 0.00 81 1007.8
20260506145627 17 211 6.4 17.7 0.00 0.00 0.00 80 1007.8
20260506144854 17 227 9.7 24.1 0.00 0.00 0.00 79 1007.8
20260506144354 17 230 11.3 24.1 0.00 0.00 0.00 79 1007.8
20260506143854 17 265 8.0 22.5 0.00 0.00 0.00 79 1007.8
20260506143355 17 221 8.0 22.5 0.00 0.00 0.00 79 1007.9
20260506142853 17 227 6.4 19.3 0.00 0.00 0.00 78 1007.9
20260506142625 17 178 4.8 16.1 0.00 0.00 0.00 79 1007.9
20260506141854 17 204 6.4 22.5 0.00 0.00 0.00 79 1007.8
20260506141354 17 220 8.0 22.5 0.00 0.00 0.00 79 1007.6
20260506140855 17 259 6.4 19.3 0.00 0.00 0.00 79 1007.7
20260506140354 17 220 6.4 19.3 0.00 0.00 0.00 80 1007.7
20260506135853 17 233 6.4 30.6 0.00 0.00 0.00 80 1007.7
20260506135355 17 271 8.0 30.6 0.00 0.00 0.00 79 1007.7
20260506134853 17 225 8.0 20.9 0.00 0.00 0.00 80 1007.8
20260506134354 17 214 8.0 19.3 0.00 0.00 0.00 80 1007.8
20260506134125 17 250 8.0 20.9 0.00 0.00 0.00 80 1007.8
20260506133353 17 265 8.0 20.9 0.00 0.00 0.00 79 1007.9
20260506132853 17 202 8.0 19.3 0.00 0.00 0.00 80 1008.0
20260506132354 17 229 6.4 19.3 0.00 0.00 0.00 79 1008.0
20260506131853 17 190 6.4 19.3 0.00 0.00 0.00 80 1008.1
20260506131625 17 255 8.0 27.4 0.00 0.00 0.00 80 1007.9
20260506130855 17 319 8.0 27.4 0.00 0.00 0.00 80 1007.8
20260506130355 17 237 6.4 22.5 0.00 0.00 0.00 79 1008.1
20260506130122 17 204 6.4 22.5 0.00 0.00 0.00 81 1008.0
20260506125351 17 199 8.0 22.5 0.00 0.00 0.00 80 1007.9
20260506124849 17 224 8.0 22.5 0.00 0.00 0.00 80 1007.7
20260506124349 17 338 8.0 22.5 0.00 0.00 0.00 81 1007.7
20260506124122 17 218 8.0 22.5 0.00 0.00 0.00 82 1007.5
20260506123615 17 236 8.0 22.5 0.00 0.00 0.00 81 1007.6
20260506122838 17 211 6.4 17.7 0.00 0.00 0.00 82 1007.6
20260506122331 16 249 8.0 20.9 0.00 0.00 0.00 82 1007.8
20260506121825 16 210 8.0 20.9 0.00 0.00 0.00 82 1007.9
20260506121320 16 242 6.4 25.7 0.00 0.00 0.00 82 1007.9
20260506120813 16 200 4.8 20.9 0.00 0.00 0.00 82 1008.0
20260506120534 16 188 8.0 29.0 0.00 0.00 0.00 82 1008.0
20260506120409 16 184 8.0 24.1 0.00 0.00 0.00 83 1008.0
20260506115256 16 221 8.0 22.5 0.00 0.00 0.00 83 1008.0
20260506114749 16 265 9.7 25.7 0.00 0.00 0.00 82 1008.0
20260506114244 16 180 9.7 33.8 0.00 0.00 0.00 83 1008.0
20260506114008 16 186 6.4 33.8 0.00 0.00 0.00 82 1008.1
20260506113231 16 209 8.0 17.7 0.00 0.00 0.00 82 1007.9
20260506112956 16 249 9.7 29.0 0.00 0.00 0.00 83 1008.0
20260506112219 16 225 9.7 29.0 0.00 0.00 0.00 82 1007.9
20260506111713 16 203 8.0 22.5 0.00 0.00 0.00 83 1007.9
20260506111207 16 202 6.4 19.3 0.00 0.00 0.00 83 1007.8
20260506110707 16 224 8.0 16.1 0.00 0.00 0.00 83 1007.9
20260506110207 16 215 8.0 17.7 0.00 0.00 0.00 83 1007.9
20260506105707 16 231 6.4 17.7 0.00 0.00 0.00 84 1007.8
20260506105207 16 207 6.4 20.9 0.00 0.00 0.00 84 1007.9
20260506104708 16 232 8.0 20.9 0.00 0.00 0.00 84 1007.8
20260506104207 16 211 6.4 17.7 0.00 0.00 0.00 85 1007.6
20260506103708 15 212 6.4 19.3 0.00 0.00 0.00 85 1007.7
20260506103206 15 198 6.4 20.9 0.00 0.00 0.00 85 1007.7
20260506102703 15 202 6.4 20.9 0.00 0.00 0.00 85 1007.8
20260506102204 15 194 6.4 17.7 0.00 0.00 0.00 85 1007.9
20260506101702 15 209 6.4 22.5 0.00 0.00 0.00 85 1007.7
20260506101201 15 207 6.4 22.5 0.00 0.00 0.00 85 1007.6
20260506100701 15 193 6.4 14.5 0.00 0.00 0.00 85 1007.7
20260506100202 15 207 6.4 24.1 0.00 0.00 0.00 85 1007.7
20260506095701 15 216 6.4 24.1 0.00 0.00 0.00 85 1007.7
20260506095201 15 209 4.8 16.1 0.00 0.00 0.00 85 1007.7
20260506094927 15 212 4.8 12.9 0.00 0.00 0.00 85 1007.6
20260506094150 15 226 4.8 14.5 0.00 0.00 0.00 85 1007.6
20260506093644 15 250 6.4 14.5 0.00 0.00 0.00 85 1007.6
20260506093137 15 218 6.4 20.9 0.00 0.00 0.00 85 1007.6
20260506092632 15 233 8.0 19.3 0.00 0.00 0.00 85 1007.7
20260506092126 15 243 8.0 22.5 0.00 0.00 0.00 86 1007.7
20260506091620 15 210 4.8 14.5 0.00 0.00 0.00 86 1007.8
20260506091113 15 204 6.4 16.1 0.00 0.00 0.00 86 1007.8
20260506090838 15 211 4.8 16.1 0.00 0.00 0.00 86 1007.7
20260506085555 15 248 4.8 12.9 0.00 0.00 0.00 86 1007.9
20260506085050 15 193 3.2 12.9 0.00 0.00 0.00 86 1007.8
20260506084815 15 248 4.8 17.7 0.00 0.00 0.00 85 1007.9
20260506084038 15 224 6.4 17.7 0.00 0.00 0.00 85 1007.9
20260506083531 15 249 6.4 16.1 0.00 0.00 0.00 85 1007.9
20260506083257 15 225 4.8 14.5 0.00 0.00 0.00 85 1007.8
20260506082520 15 207 4.8 17.7 0.00 0.00 0.00 84 1007.9
20260506082014 15 229 4.8 17.7 0.00 0.00 0.00 85 1007.9
20260506081739 15 227 4.8 12.9 0.00 0.00 0.00 84 1007.9
20260506081001 15 211 6.4 19.3 0.00 0.00 0.00 83 1007.9
20260506080726 15 219 6.4 19.3 0.00 0.00 0.00 83 1008.0
20260506080223 15 234 6.4 17.7 0.00 0.00 0.00 82 1007.9
20260506073454 15 257 6.4 20.9 0.00 0.00 0.00 81 1007.9
20260506072953 15 219 4.8 12.9 0.00 0.00 0.00 81 1007.9
20260506072724 15 250 6.4 12.9 0.00 0.00 0.00 81 1007.9
20260506071954 15 197 6.4 16.1 0.00 0.00 0.00 81 1008.0
20260506071723 15 221 4.8 16.1 0.00 0.00 0.00 81 1008.0
20260506070954 16 228 4.8 16.1 0.00 0.00 0.00 79 1007.9
20260506070449 16 227 4.8 17.7 0.00 0.00 0.00 79 1008.0
20260506062450 16 221 8.0 24.1 0.00 0.00 0.00 76 1008.4
20260506061949 16 209 6.4 19.3 0.00 0.00 0.00 76 1008.3
20260506061449 16 208 6.4 16.1 0.00 0.00 0.00 76 1008.4
20260506061221 16 224 6.4 17.7 0.00 0.00 0.00 76 1008.5
20260506060720 16 200 6.4 17.7 0.00 0.00 0.00 76 1008.5
20260506050949 17 238 6.4 14.5 0.00 0.00 0.00 73 1008.9
20260506050451 17 227 6.4 16.1 0.00 0.00 0.00 72 1008.9
20260506044933 17 211 6.4 16.1 0.00 0.00 0.00 72 1009.1
20260506044430 17 219 6.4 17.7 0.00 0.00 0.00 72 1009.1
20260506043928 17 246 6.4 17.7 0.00 0.00 0.00 71 1009.1
20260506043428 17 253 6.4 16.1 0.00 0.00 0.00 71 1009.0
20260506042928 17 233 8.0 16.1 0.00 0.00 0.00 70 1009.1
20260506042426 17 223 8.0 16.1 0.00 0.00 0.00 70 1009.1
20260506041927 17 238 6.4 14.5 0.00 0.00 0.00 70 1009.1
20260506041817 17 217 6.4 19.3 0.00 0.00 0.00 70 1009.1
20260506041705 17 249 6.4 17.7 0.00 0.00 0.00 70 1009.0
20260506040658 17 239 8.0 19.3 0.00 0.00 0.00 70 1009.1
20260506035926 17 215 6.4 16.1 0.00 0.00 0.00 70 1009.0
20260506035425 17 239 4.8 14.5 0.00 0.00 0.00 70 1009.0
20260506034926 17 221 4.8 14.5 0.00 0.00 0.00 70 1009.0
20260506034427 17 206 4.8 16.1 0.00 0.00 0.00 70 1009.0
20260506033927 17 247 6.4 16.1 0.00 0.00 0.00 69 1009.1
20260506033425 17 205 4.8 16.1 0.00 0.00 0.00 69 1008.9
20260506032925 17 250 6.4 22.5 0.00 0.00 0.00 68 1008.9
20260506032426 18 247 6.4 22.5 0.00 0.00 0.00 68 1008.9
20260506031925 18 229 8.0 24.1 0.00 0.00 0.00 67 1008.9
20260506031425 18 242 9.7 25.7 0.00 0.00 0.00 67 1008.9
20260506030926 18 223 9.7 25.7 0.00 0.00 0.00 66 1008.9
20260506030426 18 229 8.0 25.7 0.00 0.00 0.00 66 1009.1
20260506025925 18 236 8.0 24.1 0.00 0.00 0.00 66 1009.0
20260506025425 18 215 8.0 24.1 0.00 0.00 0.00 65 1008.9
20260506024926 18 227 9.7 24.1 0.00 0.00 0.00 64 1008.9
20260506024425 18 210 9.7 24.1 0.00 0.00 0.00 63 1008.9
20260506024157 18 223 9.7 27.4 0.00 0.00 0.00 63 1008.9
20260506023424 19 305 11.3 27.4 0.00 0.00 0.00 62 1009.0
20260506022926 19 220 9.7 27.4 0.00 0.00 0.00 61 1008.9
20260506022423 19 221 8.0 27.4 0.00 0.00 0.00 60 1008.9
20260506021921 19 200 9.7 33.8 0.00 0.00 0.00 59 1009.0
20260506021421 20 225 11.3 33.8 0.00 0.00 0.00 58 1008.8
20260506020919 20 199 9.7 30.6 0.00 0.00 0.00 57 1008.7
20260506020420 20 226 6.4 25.7 0.00 0.00 0.00 56 1008.7
20260506015918 20 223 6.4 20.9 0.00 0.00 0.00 56 1008.7
20260506015416 20 233 8.0 25.7 0.00 0.00 0.00 54 1008.7
20260506014917 20 198 8.0 25.7 0.00 0.00 0.00 54 1008.7
20260506014912 20 211 8.0 25.7 0.00 0.00 0.00 54 1008.7
20260506014134 20 191 8.0 25.7 0.00 0.00 0.00 53 1008.7
20260506013400 20 198 6.4 24.1 0.00 0.00 0.00 54 1008.7
20260506012859 20 207 8.0 17.7 0.00 0.00 0.00 53 1008.6
20260506012357 20 227 8.0 25.7 0.00 0.00 0.00 53 1008.6
20260506011859 20 199 6.4 25.7 0.00 0.00 0.00 54 1008.5
20260506011358 20 225 4.8 17.7 0.00 0.00 0.00 53 1008.4
20260506010858 20 184 4.8 14.5 0.00 0.00 0.00 54 1008.3
20260506010358 20 180 6.4 17.7 0.00 0.00 0.00 53 1008.3
20260506005857 20 219 6.4 17.7 0.00 0.00 0.00 53 1008.3
20260506005357 20 265 4.8 12.9 0.00 0.00 0.00 52 1008.1
20260506004856 20 211 6.4 20.9 0.00 0.00 0.00 52 1008.1
20260506004356 21 189 6.4 22.5 0.00 0.00 0.00 51 1008.1
20260506004126 21 233 6.4 22.5 0.00 0.00 0.00 50 1008.0
20260506003356 21 256 8.0 20.9 0.00 0.00 0.00 49 1007.9
20260506002857 21 197 8.0 20.9 0.00 0.00 0.00 48 1007.9
20260506002358 21 195 6.4 20.9 0.00 0.00 0.00 47 1007.8
20260506001857 21 216 8.0 20.9 0.00 0.00 0.00 46 1007.7
20260506001630 21 215 8.0 20.9 0.00 0.00 0.00 46 1007.7
20260506000852 21 204 8.0 24.1 0.00 0.00 0.00 46 1007.7
20260506000346 21 217 6.4 24.1 0.00 0.00 0.00 44 1007.6
20260505235844 21 219 6.4 20.9 0.00 0.00 0.00 44 1007.5
20260505235615 21 256 6.4 20.9 0.00 0.00 0.00 44 1007.5
20260505234848 22 294 8.0 24.1 0.00 0.00 0.00 43 1007.5
20260505234843 22 211 8.0 24.1 0.00 0.00 0.00 43 1007.5
20260505233841 22 261 6.4 29.0 0.00 0.00 0.00 44 1007.4
20260505233341 22 217 8.0 29.0 0.00 0.00 0.00 42 1007.4
20260505232841 22 207 6.4 19.3 0.00 0.00 0.00 43 1007.4
20260505232341 22 220 6.4 22.5 0.00 0.00 0.00 42 1007.3
20260505231842 22 232 6.4 22.5 0.00 0.00 0.00 42 1007.3
20260505231341 22 261 4.8 16.1 0.00 0.00 0.00 41 1007.2
20260505231112 22 231 4.8 24.1 0.00 0.00 0.00 41 1007.1
20260505230341 22 238 6.4 24.1 0.00 0.00 0.00 42 1007.0
20260505225840 22 206 8.0 27.4 0.00 0.00 0.00 41 1007.1
20260505225341 23 259 9.7 27.4 0.00 0.00 0.00 39 1007.0
20260505224842 23 236 8.0 29.0 0.00 0.00 0.00 39 1006.9
20260505224342 23 246 6.4 29.0 0.00 0.00 0.00 38 1006.8
20260505223841 23 244 8.0 22.5 0.00 0.00 0.00 40 1006.8
20260505223335 23 259 9.7 30.6 0.00 0.00 0.00 37 1006.8
20260505222830 23 270 8.0 30.6 0.00 0.00 0.00 37 1006.8
20260505222556 24 200 8.0 29.0 0.00 0.00 0.00 36 1006.7
20260505221824 24 213 8.0 27.4 0.00 0.00 0.00 37 1006.8
20260505221324 24 252 9.7 33.8 0.00 0.00 0.00 37 1006.8
20260505220827 24 223 11.3 33.8 0.00 0.00 0.00 35 1006.7
20260505220326 24 202 9.7 33.8 0.00 0.00 0.00 34 1006.8
20260505215825 24 202 9.7 33.8 0.00 0.00 0.00 35 1006.8
20260505215326 25 216 9.7 32.2 0.00 0.00 0.00 37 1006.7
20260505214825 24 240 9.7 30.6 0.00 0.00 0.00 36 1006.7
20260505214330 24 259 9.7 29.0 0.00 0.00 0.00 36 1006.7
20260505214325 24 242 9.7 30.6 0.00 0.00 0.00 36 1006.8
20260505213324 24 210 9.7 29.0 0.00 0.00 0.00 37 1006.6
20260505212822 24 277 9.7 29.0 0.00 0.00 0.00 36 1006.7
20260505212323 24 275 9.7 29.0 0.00 0.00 0.00 36 1006.5
20260505211823 25 206 9.7 30.6 0.00 0.00 0.00 35 1006.5
20260505211322 25 204 11.3 38.6 0.00 0.00 0.00 34 1006.5
20260505210821 25 226 14.5 38.6 0.00 0.00 0.00 33 1006.5
20260505210318 25 199 14.5 45.1 0.00 0.00 0.00 33 1006.5
20260505205817 26 255 14.5 45.1 0.00 0.00 0.00 31 1006.4
20260505205316 26 222 12.9 35.4 0.00 0.00 0.00 34 1006.4
20260505205047 26 246 12.9 35.4 0.00 0.00 0.00 34 1006.3
20260505204547 26 296 12.9 41.8 0.00 0.00 0.00 36 1006.3
20260505203821 26 257 11.3 33.8 0.00 0.00 0.00 36 1006.2
20260505203816 26 259 12.9 41.8 0.00 0.00 0.00 33 1006.3
20260505202817 26 283 11.3 27.4 0.00 0.00 0.00 33 1006.5